Location: Unspecified
(29.6347°N, 0.0000°E)
Time: 16:19:24
(UTC+00:00)

NANOSAT C BR1 - Visible Passes

Search period start: 04 April 2026 00:00
Search period end: 14 April 2026 00:00
Orbit: 476 x 483 km, 98.1° (Epoch: 29 March)

Date Brightness Start Highest point End Pass type
(mag) Time Alt. Az. Time Alt. Az. Time Alt. Az.
4 Apr ? 18:38:48 10° SSE 18:42:17 62° ENE 18:45:47 10° N visible
5 Apr ? 19:47:44 10° WSW 19:49:19 13° W 19:50:55 10° WNW visible
6 Apr ? 19:19:48 10° SSW 19:22:55 30° W 19:26:04 10° NW visible
7 Apr ? 18:53:02 10° S 18:56:34 81° W 19:00:07 10° NNW visible
9 Apr ? 19:34:25 10° SW 19:37:02 20° W 19:39:40 10° NW visible
10 Apr ? 19:07:07 10° S 19:10:31 49° W 19:13:58 10° NNW visible
12 Apr ? 19:49:05 10° SW 19:50:48 13° W 19:52:32 10° WNW visible
13 Apr ? 19:20:59 10° SSW 19:24:09 31° W 19:27:20 10° NW visible
